Tracking 18840 objects as of 18-November-2017
HD Live streaming from Space Station
objects crossing your sky now

IRIDIUM 75

Track IRIDIUM 75 now!
10-day predictions
IRIDIUM 75 is classified as:


NORAD ID: 25346
Int'l Code: 1998-032E
Perigee: 783.5 km
Apogee: 786.1 km
Inclination: 86.4 °
Period: 100.4 minutes
Semi major axis: 7155 km
RCS: 4.0637 m2 (large)
Launch date: May 17, 1998
Source: United States (US)
Launch site: AIR FORCE WESTERN TEST RANGE (AFWTR)
aabbcc
Your satellite tracking list
Your tracking list is empty




NASA's NSSDC Master Catalog

Two Line Element Set (TLE):
1 25346U 98032E   17322.52885316 -.00000017  00000-0 -13165-4 0  9995
2 25346  86.3965 159.6535 0001866  84.5637 275.5772 14.34221150 21794
Source of the keplerian elements: AFSPC